Regional Weather Roundup
Issued by NWS Burlington, VT

Home | Current Version | Previous Version | Graphics & Text | Print | Product List | Glossary On
Versions: 1 2 3 4 5 6 7 8 9 10 11 12 13 14 15 16 17 18 19 20 21 22 23 24 25 26 27 28 29 30 31 32 33 34 35 36 37 38 39 40 41 42 43 44 45 46 47 48 49 50
000
ASUS41 KBTV 221830
RWRBTV
VERMONT REGIONAL WEATHER ROUNDUP
NATIONAL WEATHER SERVICE BURLINGTON VT
100 PM EST SAT NOV 22 2014

NOTE: "FAIR" INDICATES FEW OR NO CLOUDS BELOW 12,000 FEET WITH NO
SIGNIFICANT WEATHER AND/OR OBSTRUCTIONS TO VISIBILITY.

* THESE REPORTS ARE NOT UNDER NWS QUALITY CONTROL AND/OR DO NOT
  REPORT WEATHER SUCH AS PRECIPITATION AND FOG.

VTZ001>019-221900-
_____VERMONT_____


CITY           SKY/WX    TMP DP  RH WIND       PRES   REMARKS
BURLINGTON     MOCLDY    33   9  36 S15G22    30.07F
6HR MIN TEMP:  25; 6HR MAX TEMP:  33;

MONTPELIER     MOCLDY    33   9  36 S7        30.07F
6HR MIN TEMP:  18; 6HR MAX TEMP:  33;

ST. JOHNSBURY*   N/A     30  14  51 MISG      30.06F
6HR MIN TEMP:  18; 6HR MAX TEMP:  30;

LYNDONVILLE*   FAIR      28  13  52 SE9       30.04F
6HR MIN TEMP:  16; 6HR MAX TEMP:  28;

MIDDLEBURY*    FAIR      32   8  35 S16       30.10F
6HR MIN TEMP:  24; 6HR MAX TEMP:  33;

RUTLAND*       MOCLDY    34   3  27 SW14G24   30.13F
6HR MIN TEMP:  21; 6HR MAX TEMP:  34;

SPRINGFIELD    PTCLDY    32  12  43 S8        30.14F
6HR MIN TEMP:  19; 6HR MAX TEMP:  33;

HIGHGATE*      CLOUDY    32  13  45 S10G20    30.00F
6HR MIN TEMP:  24; 6HR MAX TEMP:  32;

NEWPORT*       FAIR      30  13  49 S9        30.01F
6HR MIN TEMP:  19; 6HR MAX TEMP:  29;

BENNINGTON     CLEAR     37   6  27 S8        30.16F
6HR MIN TEMP:  15; 6HR MAX TEMP:  37;

SUTTON*          N/A     27 N/A N/A MISG        N/A
MT. MANSFIELD*   N/A     16 N/A N/A W26G41      N/A  WCI  -3

_____LAKE CHAMPLAIN_____


CITY           SKY/WX    TMP DP  RH WIND       PRES   REMARKS
BURTON ISLAND*   N/A     34  21  60 S30         N/A
COLCHESTER RF*   N/A     34  23  64 SW38        N/A
DIAMOND ISL*     N/A     32  18  55 SE23        N/A

$$

NYZ007-026>031-035-052-083-221900-
_____NORTHERN NEW YORK_____


CITY           SKY/WX    TMP DP  RH WIND       PRES   REMARKS
PLATTSBURGH    MOCLDY    36  18  48 SE15      30.02F
6HR MIN TEMP:  24; 6HR MAX TEMP:  37;

SARANAC LAKE   CLOUDY    32   9  38 SW10      29.98F
6HR MIN TEMP:  20; 6HR MAX TEMP:  32;

MASSENA        CLOUDY    34  13  41 SW20G31   29.98F
6HR MIN TEMP:  27; 6HR MAX TEMP:  34;

OGDENSBURG*    CLOUDY    36  18  48 S9        29.96F
POTSDAM*       MOCLDY    36  14  41 SW14G24   29.98F
WATERTOWN      CLOUDY    39   7  26 S15G22    30.03F
6HR MIN TEMP:  27; 6HR MAX TEMP:  39;

FT DRUM        CLOUDY    35  11  37 S13       30.02F
6HR MIN TEMP:  23; 6HR MAX TEMP:  35;

ALBANY         PTCLDY    35  12  38 S16G23    30.21F
6HR MIN TEMP:  21; 6HR MAX TEMP:  35;

GLENS FALLS    PTCLDY    34  13  41 S15       30.18F
6HR MIN TEMP:  22; 6HR MAX TEMP:  34;


$$
NHZ002-005-011-221900-
_____NEW HAMPSHIRE_____


CITY           SKY/WX    TMP DP  RH WIND       PRES   REMARKS
LEBANON        PTCLDY    34  12  40 S14       30.12F
6HR MIN TEMP:  17; 6HR MAX TEMP:  34;

KEENE          MOCLDY    34  10  37 SW8       30.17F
6HR MIN TEMP:  16; 6HR MAX TEMP:  32;

MT WASHINGTON  MOCLDY    12  -8  40 W76G87      N/A  WCI -18
6HR MIN TEMP:   3; 6HR MAX TEMP:  14;

PLYMOUTH       FAIR      32  20  62 CALM      30.11F
6HR MIN TEMP:  14; 6HR MAX TEMP:  30;

WHITEFIELD     CLOUDY    32  11  41 NW5       30.06F
6HR MIN TEMP:  14; 6HR MAX TEMP:  32;


$$

_____REGIONAL QUEBEC LOCATIONS_____


CITY           SKY/WX    TMP DP  RH WIND       PRES   REMARKS
MONTREAL       CLOUDY    34  18  51 SW15G21   29.97F
QUEBEC CITY    CLOUDY    28  21  74 SW25G31   29.87F WCI  14
SHERBROOKE     PTCLDY    30  14  51 SW12G21   29.96F

_____REGIONAL ONTARIO LOCATIONS_____


CITY           SKY/WX    TMP DP  RH WIND       PRES   REMARKS
OTTAWA         CLOUDY    34  23  64 S14G20    29.93F

______KEY______
VSB  - VISIBILITY IN MILES
WCI  - WIND CHILL INDEX
HX   - HEAT INDEX
$$
NNNN



USA.gov is the U.S. government's official web portal to all federal, state and local government web resources and services.